TimeMDT,TemperatureF,Dew PointF,Humidity,Sea Level PressureIn,VisibilityMPH,Wind Direction,Wind SpeedMPH,Gust SpeedMPH,PrecipitationIn,Events,Conditions,WindDirDegrees,DateUTC
12:51 AM,30.9,27.0,85,30.00,10.0,Calm,Calm,-,N/A,,Clear,0,2013-10-01 06:51:00
1:51 AM,30.0,27.0,88,30.00,10.0,Calm,Calm,-,N/A,,Clear,0,2013-10-01 07:51:00
2:51 AM,28.9,26.1,89,30.01,10.0,Calm,Calm,-,N/A,,Clear,0,2013-10-01 08:51:00
3:51 AM,30.0,27.0,88,30.01,10.0,Calm,Calm,-,N/A,,Overcast,0,2013-10-01 09:51:00
4:51 AM,30.9,28.0,89,30.00,10.0,Calm,Calm,-,N/A,,Overcast,0,2013-10-01 10:51:00
5:51 AM,32.0,28.9,88,30.00,10.0,Calm,Calm,-,N/A,,Overcast,0,2013-10-01 11:51:00
6:51 AM,33.1,30.0,89,30.00,10.0,Calm,Calm,-,N/A,,Overcast,0,2013-10-01 12:51:00
7:51 AM,33.1,30.9,92,30.01,10.0,Calm,Calm,-,N/A,,Overcast,0,2013-10-01 13:51:00
8:51 AM,35.1,32.0,89,30.01,10.0,Calm,Calm,-,N/A,,Mostly Cloudy,0,2013-10-01 14:51:00
9:51 AM,37.0,34.0,89,30.02,10.0,Calm,Calm,-,N/A,,Overcast,0,2013-10-01 15:51:00
10:51 AM,39.9,33.1,77,30.03,10.0,South,3.5,-,N/A,,Overcast,180,2013-10-01 16:51:00
11:51 AM,46.0,33.1,61,30.01,10.0,SSE,6.9,-,N/A,,Overcast,160,2013-10-01 17:51:00
12:51 PM,50.0,33.1,52,29.99,10.0,West,6.9,-,N/A,,Overcast,260,2013-10-01 18:51:00
1:51 PM,48.9,30.9,50,29.99,10.0,SSW,6.9,-,N/A,,Mostly Cloudy,200,2013-10-01 19:51:00
2:51 PM,48.9,30.0,48,29.99,10.0,SSW,8.1,18.4,N/A,,Mostly Cloudy,210,2013-10-01 20:51:00
3:51 PM,48.0,28.9,48,30.00,10.0,South,12.7,-,N/A,,Mostly Cloudy,190,2013-10-01 21:51:00
4:51 PM,50.0,30.0,46,29.99,10.0,South,19.6,24.2,N/A,,Partly Cloudy,190,2013-10-01 22:51:00
5:51 PM,46.0,30.9,56,30.02,10.0,South,11.5,-,N/A,,Partly Cloudy,190,2013-10-01 23:51:00
6:51 PM,45.0,32.0,60,30.02,10.0,South,6.9,-,N/A,,Clear,180,2013-10-02 00:51:00
7:51 PM,43.0,30.0,60,30.04,10.0,South,5.8,-,N/A,,Mostly Cloudy,190,2013-10-02 01:51:00
8:51 PM,41.0,30.9,67,30.07,10.0,Calm,Calm,-,N/A,,Overcast,0,2013-10-02 02:51:00
9:51 PM,39.9,30.9,70,30.11,10.0,Variable,4.6,-,0.01,,Overcast,0,2013-10-02 03:51:00
10:51 PM,39.9,32.0,73,30.12,10.0,Calm,Calm,-,N/A,,Overcast,0,2013-10-02 04:51:00
11:51 PM,37.0,32.0,82,30.11,10.0,Calm,Calm,-,N/A,,Partly Cloudy,0,2013-10-02 05:51:00